Overview Statistics Trail Chart Weather Telemetry Raw packets
 

This is the latest recevied weather packets stored in our database for station/object KW4UJ. If no packets are shown the sender has not sent any weather packets the latest 10 day(s).

<< 60 61 62 63 64 65 66 >>
Time Temp. Humidity Pressure Rain* Wind** Luminosity Snow
1788219858 26.67° C 84% 1017.7 hPa 0 mm - 1 W/m² -
1788219553 26.67° C 84% 1017.7 hPa 0 mm - 2 W/m² -
1788219248 27.22° C 83% 1018.1 hPa 0 mm - 4 W/m² -
1788218943 27.22° C 82% 1017.8 hPa 0 mm - 6 W/m² -
1788218640 27.22° C 82% 1017.8 hPa 0 mm - 11 W/m² -
1788218335 27.78° C 81% 1018.1 hPa 0 mm - 15 W/m² -
1788218032 27.78° C 81% 1017.7 hPa 0 mm - 16 W/m² -
1788217727 27.78° C 80% 1017.8 hPa 0 mm - 20 W/m² -
1788217422 27.78° C 80% 1018 hPa 0 mm - 24 W/m² -
1788217122 27.78° C 79% 1018.1 hPa 0 mm - 30 W/m² -
1788216816 27.78° C 78% 1018.1 hPa 0 mm - 29 W/m² -
1788216512 28.33° C 79% 1018 hPa 0 mm - 38 W/m² -
1788216206 28.33° C 78% 1018.4 hPa 0 mm - 38 W/m² -
1788215902 28.33° C 78% 1018.2 hPa 0 mm - 43 W/m² -
1788215598 28.33° C 78% 1018.2 hPa 0 mm - 43 W/m² -
1788215295 28.33° C 78% 1018.5 hPa 0 mm - 52 W/m² -
1788214990 28.33° C 78% 1018.3 hPa 0 mm - 51 W/m² -
1788214685 28.33° C 78% 1018.5 hPa 0 mm - 41 W/m² -
1788214380 28.33° C 78% 1018.8 hPa 0 mm - 38 W/m² -
1788214081 28.33° C 77% 1018.6 hPa 0 mm - 55 W/m² -
1788213776 28.33° C 77% 1018.7 hPa 0 mm - 77 W/m² -
1788213476 28.33° C 76% 1018.7 hPa 0 mm - 83 W/m² -
1788213172 28.33° C 77% 1018.7 hPa 0 mm - 86 W/m² -
1788212869 28.33° C 76% 1018.5 hPa 0 mm - 91 W/m² -
1788212565 28.33° C 76% 1018.7 hPa 0 mm - 86 W/m² -

* Rain latest hour (hover to see other rain measurements)
** Current wind speed in m/s (hover to see current wind gust speed)